Home > Weather > Kryvyi Rih > Past weeks

Flag for Ukraine Past Weather in Kryvyi Rih, Ukraine — Yesterday and Last 2 Weeks

Now
68 °F

Passing clouds.


Feels Like: 68 °F
Forecast: 62 / 87 °F
Wind: 8 mph from Northeast

Location: Krivyy Rih / Dnipropetrovs'k

Current Time: Aug 27, 2016 at 9:52:38 AM

Latest Report: Aug 27, 2016 at 9:00 AM


Visibility: N/A

Pressure: 30.18 "Hg

Humidity: 60%

Dew Point: 54 °F

Location of Kryvyi RihLocation

Past Weather in Kryvyi Rih — Graph

°F

Kryvyi Rih Temperature Yesterday

Maximum temperature yesterday: 77 °F (at 1:00 PM)
Minimum temperature yesterday: 59 °F (at 2:00 AM)
Average temperature yesterday: 68 °F

High & Low Weather Summary for the Past Weeks

 TemperatureHumidityPressure
High97 °F (Aug 23, 3:00 PM)100% (Aug 17, 7:00 AM)30.18 "Hg (Aug 17, 7:00 AM)
Low55 °F (Aug 14, 2:00 AM)18% (Aug 23, 3:00 PM)29.86 "Hg (Aug 18, 4:00 AM)
Average71 °F65%29.98 "Hg
* Reported Aug 12 8:00 AM — Aug 27 8:30 AM, Kryvyi Rih, Weather by CustomWeather, © 2016

Note: Actual official high and low records may vary slightly from our data, if they occured in-between our weather recording intervals... More about our weather records

Advertising

Kryvyi Rih Weather History for the Previous 24 Hours

Scroll right to see more
 ConditionsComfort  
Time TempWeatherWind HumidityBarometerVisibility
8:30 AM
Sat, Aug 27
66 °FPassing clouds.10 mph60%30.18 "HgN/A
8:00 AM66 °FPassing clouds.10 mph60%30.18 "HgN/A
7:30 AM63 °FPassing clouds.10 mph68%30.18 "HgN/A
7:00 AM63 °FPassing clouds.10 mph68%30.18 "HgN/A
6:30 AM63 °FPassing clouds.8 mph68%30.15 "HgN/A
6:00 AM63 °FPassing clouds.8 mph68%30.15 "HgN/A
5:30 AM64 °FPassing clouds.10 mph60%30.15 "HgN/A
5:00 AM64 °FPassing clouds.10 mph60%30.15 "HgN/A
4:30 AM64 °FPassing clouds.8 mph60%30.15 "HgN/A
4:00 AM64 °FPassing clouds.10 mph60%30.15 "HgN/A
3:30 AM66 °FPassing clouds.10 mph60%30.15 "HgN/A
3:00 AM66 °FClear.10 mph60%30.15 "Hg10 mi
2:30 AM66 °FPassing clouds.10 mph56%30.15 "HgN/A
2:00 AM66 °FPassing clouds.10 mph56%30.15 "HgN/A
1:30 AM68 °FPassing clouds.8 mph53%30.15 "HgN/A
1:00 AM68 °FPassing clouds.10 mph53%30.12 "HgN/A
12:30 AM68 °FPassing clouds.10 mph56%30.15 "HgN/A
12:00 AM68 °FPassing clouds.10 mph56%30.15 "HgN/A
11:30 PM
Fri, Aug 26
68 °FPassing clouds.8 mph49%30.12 "HgN/A
11:00 PM68 °FPassing clouds.10 mph49%30.12 "HgN/A
10:30 PM70 °FPassing clouds.8 mph50%30.12 "HgN/A
10:00 PM70 °FPassing clouds.8 mph50%30.12 "HgN/A
9:30 PM72 °FPassing clouds.8 mph50%30.12 "HgN/A
9:00 PM72 °FPassing clouds.8 mph50%30.12 "HgN/A
8:30 PM72 °FSunny.8 mph47%30.12 "Hg10 mi
8:00 PM72 °FSunny.10 mph47%30.12 "Hg10 mi
7:30 PM73 °FPassing clouds.10 mph44%30.09 "HgN/A
7:00 PM73 °FPassing clouds.10 mph44%30.09 "HgN/A
6:30 PM73 °FPassing clouds.10 mph47%30.09 "HgN/A
6:00 PM73 °FPassing clouds.10 mph47%30.09 "HgN/A
5:30 PM73 °FPassing clouds.10 mph44%30.09 "HgN/A
5:00 PM73 °FPassing clouds.13 mph44%30.09 "HgN/A
4:30 PM75 °FPassing clouds.15 mph41%30.09 "HgN/A
4:00 PM75 °FPassing clouds.13 mph41%30.09 "HgN/A
3:30 PM75 °FPassing clouds.13 mph44%30.09 "HgN/A
3:00 PM75 °FPassing clouds.13 mph44%30.09 "HgN/A
2:30 PM75 °FPassing clouds.15 mph41%30.09 "HgN/A
2:00 PM75 °FPassing clouds.15 mph41%30.09 "HgN/A
1:30 PM77 °FPassing clouds.15 mph42%30.09 "HgN/A
1:00 PM77 °FPassing clouds.17 mph42%30.09 "HgN/A
12:30 PM73 °FPassing clouds.17 mph47%30.09 "HgN/A
12:00 PM73 °FPassing clouds.22 mph47%30.09 "HgN/A
11:30 AM73 °FPassing clouds.15 mph50%30.09 "HgN/A
11:00 AM73 °FPassing clouds.15 mph50%30.09 "HgN/A
10:30 AM72 °FPassing clouds.17 mph53%30.09 "HgN/A
10:00 AM72 °FPassing clouds.15 mph53%30.09 "HgN/A
9:30 AM64 °FPassing clouds.13 mph73%30.09 "HgN/A
9:00 AM64 °FPassing clouds.13 mph73%30.09 "HgN/A
Weather by CustomWeather, © 2016

See weather overviewHow to use our weather pages